RH
12 14 15 15 16 14 13 12 11 11 10 9 8 8 7 6 7 7 8 8 7 8 7 8 7 7 7 7 9 11 12 14 18 31 40 42 50 52 47 45 41 37 33 30 34 44 52 59 65 64 62 62 62 62 59 59 61 64 70 72 68 59 50 47 47 47 50 53 54 54 52 49 47 46 47 48 49 52 52 54 56 52 47 43 39 38 39 40 38 36 35 32 30 27 20 16 13
11 12 13 14 17 17 16 15 14 12 11 11 10 10 9 7 8 9 8 8 8 8 8 8 7 6 6 6 6 7 9 12 15 23 30 39 54 56 50 48 44 41 37 33 33 39 52 61 66 66 62 63 63 64 62 61 64 65 69 71 71 66 60 54 52 52 52 54 55 54 53 50 49 49 50 50 51 54 53 54 56 53 49 45 43 42 42 41 39 39 38 34 33 34 27 17 12
10 11 11 13 14 17 18 18 17 15 14 13 13 12 10 10 9 9 9 9 10 9 8 8 7 7 6 6 6 5 6 9 11 12 21 42 55 52 51 56 51 45 43 38 36 39 53 65 68 67 64 64 66 66 64 64 66 68 71 71 70 70 70 66 58 55 53 55 56 55 55 52 51 52 52 53 55 55 54 55 55 54 52 48 46 45 44 42 41 41 38 35 33 37 34 21 11
12 12 11 12 13 14 16 18 19 19 18 15 17 15 11 12 11 10 10 11 12 10 9 8 8 7 6 6 6 5 6 6 10 10 17 36 46 44 46 60 61 53 53 46 39 41 52 67 70 68 65 65 67 69 69 68 72 78 78 71 70 72 73 74 69 61 55 53 55 57 57 54 54 54 55 56 57 56 55 55 54 56 54 50 47 45 44 42 41 38 36 33 31 36 37 25 12
16 15 14 13 12 13 13 16 18 20 21 20 20 17 13 14 14 12 12 12 12 11 10 9 9 8 7 7 6 6 7 6 10 10 13 23 28 40 44 50 60 57 60 55 45 43 51 65 69 67 67 68 69 73 73 72 76 83 84 75 75 80 77 77 75 70 64 55 52 55 56 55 55 57 58 58 58 56 56 55 56 59 55 51 47 45 44 40 37 34 34 35 35 37 36 26 12
21 19 18 16 14 14 15 15 15 21 22 22 23 18 16 16 15 15 14 13 12 12 11 10 9 9 8 7 7 6 7 6 9 8 13 19 20 41 51 44 54 59 60 57 50 47 51 60 66 67 68 73 73 75 73 71 74 75 81 82 82 85 82 79 75 71 69 63 57 55 56 55 56 59 60 60 59 56 56 57 59 60 55 50 47 45 41 37 34 33 36 38 41 40 35 25 11
22 22 21 19 18 16 16 15 16 21 19 19 25 21 19 19 17 16 16 15 14 13 12 12 10 10 11 8 8 7 7 6 8 9 13 19 22 38 52 50 54 61 60 55 53 55 59 57 61 66 68 75 76 76 75 73 74 70 77 83 83 86 85 79 73 69 67 66 63 60 60 59 61 64 64 62 59 57 58 60 61 58 53 48 44 42 39 37 35 35 38 40 44 42 33 22 10
20 23 24 23 22 20 19 18 18 20 16 17 26 24 23 23 20 18 17 18 16 14 13 12 12 13 12 9 11 8 7 7 7 10 11 14 21 31 45 53 56 60 60 56 55 60 72 65 61 69 71 79 79 77 77 75 76 73 74 76 80 87 86 79 74 72 67 67 66 65 65 63 63 63 64 63 60 59 60 61 60 56 53 49 44 43 41 41 40 40 42 43 45 39 29 19 8
19 22 24 26 25 25 22 21 20 19 17 19 25 26 25 25 24 22 19 18 17 16 15 13 14 15 13 11 13 10 7 8 6 8 11 12 17 27 41 54 57 59 59 60 60 62 77 71 64 75 77 78 78 76 78 77 77 75 72 70 77 86 87 81 75 74 72 69 69 69 67 63 58 58 62 63 62 61 61 61 61 58 57 54 49 47 45 45 46 47 48 48 45 33 21 14 6
18 20 23 26 28 28 27 26 23 21 20 19 24 27 27 27 27 27 24 21 18 18 16 15 16 16 14 14 15 12 9 9 8 7 9 10 12 21 38 52 58 60 58 60 67 72 78 68 61 71 73 73 74 78 79 75 75 75 75 73 76 82 81 77 72 72 75 74 74 73 71 66 60 60 64 64 64 63 61 62 63 63 59 56 51 48 46 45 48 50 51 50 41 24 13 9 5
13 17 21 24 26 28 30 30 27 25 22 22 25 26 26 28 29 30 29 26 21 19 17 16 17 15 15 16 16 14 12 10 8 8 8 9 11 16 29 46 57 61 58 61 74 84 84 72 63 64 65 68 69 76 79 76 77 78 79 76 80 83 71 67 69 71 75 77 76 75 72 72 67 65 66 65 64 61 61 64 66 64 58 55 50 48 46 46 50 51 50 49 34 15 8 6 5
8 11 16 21 24 26 28 30 30 29 26 26 26 24 24 28 30 30 29 29 26 25 20 18 17 16 17 16 16 15 14 12 9 9 8 8 9 12 20 36 53 60 61 68 76 84 89 81 73 69 66 69 70 72 74 74 76 76 77 74 80 86 72 66 71 71 74 75 76 77 74 71 67 66 67 65 62 59 61 67 69 64 59 57 52 50 49 50 53 51 49 44 26 9 5 5 7
4 5 9 14 18 22 24 27 29 30 30 30 28 24 24 28 30 29 29 29 30 29 23 20 19 19 19 17 16 16 15 13 11 10 9 8 9 10 14 25 44 56 61 70 74 82 89 81 76 77 74 74 74 74 71 70 69 68 71 70 69 76 74 71 74 75 77 77 78 84 83 76 70 70 70 65 60 60 63 70 71 65 61 59 55 53 53 55 54 49 45 35 20 9 6 6 9
5 4 5 6 9 14 19 23 25 27 31 31 29 27 26 28 28 28 30 30 30 27 24 23 23 24 24 20 18 16 15 15 13 11 11 10 8 9 12 18 33 49 59 68 74 85 88 78 76 79 80 79 76 76 73 69 66 62 64 64 60 66 76 75 74 80 85 84 82 85 88 86 82 74 64 59 59 61 66 73 72 66 63 60 56 55 55 56 52 44 37 28 21 16 11 9 11
10 6 5 4 4 8 12 17 19 23 28 27 29 30 28 28 27 28 29 30 30 26 27 26 25 28 26 24 22 18 16 17 14 13 12 11 10 9 10 13 24 42 57 66 76 90 88 78 80 81 81 81 77 75 73 69 64 61 60 56 53 63 79 82 77 81 89 89 88 88 89 89 90 78 56 50 58 63 70 75 72 67 64 60 57 56 55 52 46 38 33 29 30 30 22 14 11
14 11 8 6 5 6 6 10 14 17 22 22 25 29 29 29 28 29 28 29 31 28 29 27 25 27 25 25 25 22 19 18 17 15 13 14 13 11 10 11 18 34 52 60 67 81 81 74 78 81 82 80 78 75 70 68 62 58 55 51 58 71 82 88 85 84 90 93 93 91 89 88 90 87 65 50 57 66 75 75 71 69 65 61 57 54 52 48 42 36 34 35 38 39 29 16 10
17 16 12 9 6 6 5 6 9 12 16 17 19 24 27 29 29 29 28 30 33 31 30 28 27 26 25 25 25 24 22 20 19 17 16 16 16 15 12 11 13 26 43 51 56 71 79 75 74 77 81 80 75 72 67 65 60 55 54 55 65 75 79 88 92 86 89 94 94 91 89 87 86 91 80 61 63 72 77 74 71 70 66 62 57 54 51 47 41 37 38 39 39 39 28 15 9
19 20 16 13 9 7 6 5 6 8 11 13 15 17 20 25 28 28 29 31 32 33 32 30 28 27 26 25 24 25 23 23 21 19 18 17 20 18 14 15 18 22 34 45 51 65 74 72 73 76 79 78 72 68 65 62 57 55 56 61 65 75 85 90 90 83 86 94 95 93 88 86 86 91 89 77 75 79 77 74 72 71 68 64 58 54 50 45 41 40 42 43 43 36 23 13 9
20 21 20 16 12 10 9 7 6 5 7 10 12 14 15 18 22 26 28 30 30 33 34 31 29 26 26 25 24 25 24 25 24 22 20 19 22 22 18 21 26 24 31 45 53 63 68 64 66 76 78 74 70 65 63 60 58 58 60 68 73 85 95 91 87 82 88 98 98 95 85 84 89 91 94 90 83 80 78 76 74 73 69 64 58 52 48 48 48 47 46 49 51 34 17 11 8
20 21 22 19 16 13 12 11 9 7 6 7 9 11 12 13 15 19 24 28 29 32 32 31 30 26 26 25 24 25 24 25 27 26 23 21 22 25 27 28 29 24 25 37 49 60 72 73 65 69 76 72 69 67 67 59 55 62 71 84 84 86 94 91 88 87 92 100 99 95 84 86 94 91 89 88 80 76 77 77 76 74 69 63 55 49 47 53 59 61 56 54 50 28 11 9 8
20 20 22 21 19 17 16 14 12 11 9 7 6 7 10 11 12 13 16 23 29 30 28 28 28 27 28 25 24 25 25 24 27 30 27 23 23 26 34 34 28 22 23 32 45 58 71 83 78 70 71 73 73 71 71 58 52 70 84 96 90 82 91 92 91 93 96 98 95 91 83 88 99 95 85 78 74 74 77 76 78 75 69 61 51 45 44 54 69 71 64 54 39 18 7 9 8
20 20 21 21 21 20 18 18 17 15 13 10 7 6 6 8 11 12 11 16 22 24 25 27 26 26 28 27 25 24 26 25 25 30 31 27 23 27 35 35 27 21 27 36 49 62 67 78 89 84 72 71 71 70 74 60 57 76 86 97 96 88 96 97 96 98 97 96 93 85 80 87 99 99 84 73 72 73 77 78 78 76 69 60 48 42 43 57 73 66 52 40 24 12 7 9 8
23 21 21 21 21 22 21 20 20 19 17 15 12 10 7 6 7 9 11 12 13 15 19 24 26 25 26 28 28 24 25 25 25 27 31 31 26 26 32 33 29 23 28 40 49 57 67 78 89 93 81 68 66 67 70 58 60 71 69 86 100 97 100 100 99 99 96 93 89 80 77 90 99 97 81 68 70 72 76 80 78 77 70 60 48 41 46 62 71 55 38 26 13 9 9 11 10
25 23 22 22 22 23 22 22 22 21 21 19 16 14 12 10 7 6 8 10 11 12 14 17 22 25 25 26 27 27 25 24 26 25 27 32 31 28 28 29 30 26 28 43 47 44 59 79 86 92 87 80 74 68 70 63 62 63 50 63 91 100 101 99 97 98 97 92 85 72 74 94 99 96 85 62 64 72 75 81 80 78 72 61 50 43 50 65 64 47 32 18 8 10 11 12 10
29 26 25 25 24 24 23 23 23 24 25 23 19 18 17 16 14 11 8 7 8 10 11 12 15 20 24 25 26 27 27 24 25 26 26 28 32 33 29 26 26 26 27 38 50 49 55 74 88 93 90 93 82 59 70 75 57 49 37 38 63 87 96 99 99 97 98 96 89 72 70 93 99 97 94 67 60 73 75 81 83 79 74 64 52 46 52 64 57 37 25 15 8 11 12 13 11
35 32 28 27 26 25 24 24 24 26 27 26 23 20 20 18 16 15 12 9 8 7 9 11 12 14 18 23 25 26 27 27 26 27 27 26 29 33 32 28 24 27 31 37 50 52 51 64 84 94 90 93 87 61 63 70 56 49 39 27 33 51 66 81 92 97 101 99 95 81 69 84 97 98 100 78 61 72 76 80 86 82 76 69 55 48 53 62 52 30 19 12 8 10 12 14 12
38 36 34 29 26 25 25 25 25 25 26 28 26 22 22 21 17 14 12 12 11 9 8 8 10 11 13 16 22 25 25 27 27 27 29 30 28 29 33 32 28 31 33 35 39 37 38 49 71 94 93 83 81 75 63 54 56 59 47 30 24 25 31 40 57 78 93 97 97 89 72 72 87 94 99 89 66 68 78 80 86 86 79 72 59 51 54 58 47 28 18 11 7 10 13 15 12
38 37 36 31 29 28 28 27 26 27 28 30 29 24 22 20 18 16 13 11 10 10 9 8 8 10 11 12 16 22 25 26 26 27 29 32 31 27 29 31 32 34 33 32 31 31 32 42 71 94 95 77 65 72 70 56 52 54 47 34 25 22 22 20 24 38 55 72 85 87 78 71 79 88 94 97 80 69 78 83 86 88 84 76 63 55 54 52 42 27 20 16 9 9 12 14 11
41 38 36 36 34 30 32 33 32 35 36 37 33 30 33 29 22 18 14 12 8 8 8 8 9 8 11 12 13 16 23 26 26 27 28 31 34 30 28 27 30 33 34 33 30 35 34 44 79 96 90 76 59 66 75 67 54 46 42 36 28 24 22 21 18 18 21 35 59 76 78 73 83 94 90 94 95 77 76 85 87 89 89 79 67 60 57 48 37 25 22 25 18 13 13 13 11
41 39 38 46 50 44 41 39 39 44 45 48 44 45 56 54 39 26 17 14 11 8 7 7 9 8 9 12 14 15 19 26 29 27 26 29 32 32 29 24 27 29 30 31 29 34 35 47 82 99 91 74 59 65 72 67 62 53 43 36 33 28 22 21 20 18 15 18 36 59 71 75 82 88 81 83 97 91 82 85 88 91 91 82 69 64 62 46 30 22 22 26 23 16 14 13 10
40 42 41 48 61 58 45 40 45 50 53 59 57 57 68 66 55 40 25 19 16 12 9 7 8 8 9 9 12 17 19 26 33 32 27 28 30 32 30 26 30 31 25 26 27 28 33 47 78 98 92 76 63 64 68 66 68 64 50 38 33 28 23 20 19 20 18 15 22 38 56 66 66 69 76 83 93 96 92 87 87 92 92 84 71 67 66 42 20 16 15 17 17 15 13 12 8
42 47 51 50 57 58 45 43 49 50 53 61 66 74 81 77 67 51 33 28 24 19 14 9 9 9 8 9 9 15 20 26 35 40 36 30 28 31 31 30 34 34 29 26 22 26 34 42 71 96 90 79 73 67 69 69 69 68 57 47 38 28 24 19 17 20 20 18 16 20 29 36 41 50 70 89 97 96 94 91 88 91 93 87 73 67 64 37 15 15 12 13 17 16 13 11 11
44 48 59 56 51 53 52 51 52 51 54 63 74 83 87 83 74 57 42 38 33 29 24 15 12 12 10 9 8 11 18 25 33 43 48 38 28 29 30 31 34 36 41 38 28 29 35 34 53 88 93 79 74 67 67 67 64 65 63 61 50 35 30 22 18 20 21 20 16 16 15 15 23 34 56 85 100 98 91 90 91 90 92 91 75 65 60 31 15 28 30 24 19 16 15 12 14
44 48 57 55 45 47 57 58 55 52 54 66 75 77 79 79 70 58 51 48 41 35 32 24 17 13 13 11 9 10 13 22 29 39 53 48 33 28 29 32 35 38 43 44 47 51 50 42 41 71 95 84 71 65 66 67 61 64 71 68 55 46 39 24 19 22 22 22 19 19 18 15 16 24 48 77 94 100 93 90 93 91 90 92 78 64 54 26 23 54 63 50 32 17 14 11 12
38 46 53 51 43 46 55 57 54 48 54 67 71 72 76 74 65 58 55 54 50 41 35 32 25 16 14 13 12 11 10 16 26 33 47 52 41 33 29 31 34 42 48 45 56 69 66 59 44 57 92 90 74 68 64 67 65 70 79 68 53 51 41 25 20 22 22 22 21 21 21 19 17 20 37 57 77 97 100 95 97 96 91 91 80 62 44 24 37 77 83 72 57 30 15 9 9
30 46 54 49 42 43 45 45 44 43 58 71 66 65 70 68 66 61 57 56 56 51 42 36 33 25 17 14 14 15 12 12 20 27 36 46 46 40 36 33 30 37 51 55 65 76 73 69 53 59 92 90 74 71 67 75 81 78 74 60 52 45 33 25 22 21 22 22 21 21 20 21 20 19 23 32 53 83 99 99 98 99 95 91 80 61 40 24 47 84 83 73 70 47 22 10 8
23 40 51 48 42 43 42 38 42 46 59 72 63 56 58 57 62 63 60 59 58 58 54 43 38 35 26 18 14 17 18 13 15 22 28 35 40 43 43 40 36 32 39 52 68 81 86 85 72 74 93 88 78 80 78 84 86 74 61 50 45 36 27 27 24 22 23 22 21 19 19 19 19 20 19 21 33 56 81 89 92 97 98 93 80 62 41 26 50 81 76 68 70 55 28 11 8
16 29 42 48 43 44 45 37 43 49 55 71 67 59 60 54 54 60 61 61 60 60 61 54 45 41 37 29 19 17 20 18 14 18 22 28 31 37 43 44 46 43 37 43 56 73 91 97 90 87 87 85 87 84 74 75 73 64 57 49 40 32 28 27 23 22 22 21 22 19 18 17 16 18 19 20 22 34 55 72 87 98 100 96 82 66 43 28 55 79 69 67 70 55 29 12 10
14 24 35 49 47 46 55 51 48 49 54 71 73 66 69 60 53 57 58 60 63 62 62 62 56 48 43 40 35 26 23 20 16 16 17 23 25 28 37 42 48 49 43 42 48 67 90 100 99 95 90 88 90 84 76 75 68 58 53 45 36 30 26 23 22 22 21 21 22 20 20 18 16 16 16 19 20 26 39 53 80 97 100 97 81 64 44 33 60 75 62 64 67 47 24 11 13
31 32 33 47 52 50 63 63 53 50 54 63 69 72 74 68 62 62 59 59 62 63 63 66 67 62 53 45 45 42 36 29 21 16 14 17 21 22 28 36 44 48 45 42 44 57 77 92 100 102 99 95 92 93 93 85 68 53 47 40 33 29 25 23 22 22 23 26 26 24 21 19 18 16 15 17 17 24 30 36 66 91 97 95 76 57 43 40 63 68 54 58 57 36 17 14 19
38 37 32 42 53 53 58 58 52 59 68 63 66 79 79 72 71 69 65 62 62 63 64 66 70 71 66 56 50 48 47 43 33 24 16 13 15 17 21 26 35 42 43 42 42 47 55 69 87 94 97 98 96 98 98 85 63 49 45 39 34 31 29 27 27 30 32 32 32 31 25 19 19 17 16 17 15 21 26 25 47 82 98 93 71 51 41 43 61 63 46 43 44 31 20 26 30
32 36 38 43 53 56 57 57 54 68 85 73 65 79 84 82 81 76 73 72 70 66 65 67 70 73 74 71 64 57 52 49 44 37 27 16 11 12 15 19 24 31 36 37 40 47 48 51 64 75 84 94 98 98 97 85 67 56 52 44 37 33 31 32 34 41 43 37 34 34 29 22 18 18 17 17 15 17 24 24 30 59 90 97 76 49 39 43 55 61 46 29 33 36 34 42 45
39 47 49 46 51 58 64 64 59 71 84 72 65 76 87 96 95 84 78 77 77 74 69 70 72 73 74 74 73 71 65 59 52 45 37 27 16 9 10 13 16 20 25 28 30 39 46 48 52 60 72 84 88 92 96 86 67 60 59 55 51 45 39 41 43 47 45 37 32 31 32 29 23 19 17 17 17 14 19 24 23 32 56 85 87 54 35 44 50 57 53 30 28 43 47 53 58
43 54 54 49 53 63 72 69 63 70 73 71 75 78 84 97 99 91 82 80 82 77 68 65 67 67 68 69 69 69 70 68 62 52 43 34 24 13 8 8 10 13 16 19 21 25 32 38 43 48 57 66 68 72 82 81 70 68 73 78 75 60 50 48 46 46 44 35 29 27 30 34 29 21 17 17 17 15 15 19 23 24 27 52 84 69 38 42 48 51 57 39 28 40 50 58 65
40 48 48 48 55 67 75 72 72 71 68 79 88 76 76 92 96 91 87 87 89 81 68 64 65 64 65 67 65 63 63 64 64 60 51 40 30 20 12 7 6 8 9 12 14 17 19 23 29 34 41 49 52 54 58 62 63 68 75 77 69 52 43 42 38 36 38 35 29 26 27 32 30 22 19 17 17 17 15 16 19 24 22 26 60 76 50 40 48 49 54 47 32 34 45 58 68
40 42 44 48 56 71 77 76 80 73 72 86 86 72 74 90 96 91 89 93 92 86 80 79 78 75 73 70 66 63 59 55 55 56 55 49 39 27 18 11 7 6 7 7 8 10 13 14 17 20 24 31 38 42 45 44 42 45 48 49 44 36 33 38 39 33 30 29 27 27 27 29 30 23 20 18 17 17 15 17 15 18 25 19 36 71 60 41 48 48 51 52 40 36 43 56 69
43 41 45 51 61 76 79 79 77 73 85 92 78 69 70 85 100 97 93 94 87 85 87 87 87 86 84 81 77 72 67 61 56 51 50 49 45 37 27 17 11 8 6 6 6 6 8 9 11 13 14 17 21 26 31 33 32 32 34 36 33 28 27 36 43 36 30 28 23 23 24 28 29 24 22 19 16 18 15 16 16 13 23 21 31 69 68 45 49 49 49 55 51 48 51 56 67
43 43 46 57 73 84 86 87 79 77 93 91 72 68 70 82 100 100 95 92 86 87 92 90 86 82 78 76 76 76 75 73 69 63 56 50 47 44 36 26 17 12 9 7 7 7 6 7 7 8 9 11 14 16 18 21 24 25 29 33 31 26 24 27 32 30 31 31 25 24 22 22 26 21 20 20 16 17 15 15 17 14 20 20 34 75 74 48 52 53 48 54 59 63 65 63 66
43 46 51 64 81 90 94 94 87 83 88 79 61 62 76 90 96 94 93 94 93 95 97 94 89 84 80 74 71 72 73 75 75 73 69 64 61 57 50 42 30 19 13 10 9 8 7 7 6 6 6 7 8 10 12 13 16 17 19 24 26 26 22 20 24 26 29 28 29 36 28 17 21 20 18 19 17 17 16 15 15 14 18 20 33 71 76 54 52 55 51 53 61 71 75 74 72
45 49 55 70 85 92 95 93 88 86 85 75 58 52 67 87 93 89 88 91 95 95 92 89 86 85 87 84 80 77 74 73 73 71 68 66 67 66 63 58 50 37 24 15 12 10 9 9 7 6 6 6 6 6 7 8 10 12 13 14 17 21 21 19 20 23 26 26 28 36 30 19 19 18 17 19 17 18 17 14 15 13 17 19 27 53 71 66 60 57 54 53 60 72 78 80 81
51 47 39 48 65 79 88 90 92 91 82 72 61 52 52 67 81 83 80 81 83 84 82 78 75 77 81 84 85 83 79 74 70 68 65 62 60 61 61 61 58 53 43 30 20 14 11 10 10 9 8 7 6 5 5 6 6 7 8 10 11 13 16 17 16 18 23 25 25 24 25 28 27 17 16 19 16 17 16 14 14 12 15 20 24 36 55 67 70 66 60 56 59 71 79 82 84
49 45 39 44 51 63 75 79 81 79 72 69 64 54 46 53 62 64 69 76 75 74 74 70 68 69 71 74 76 75 74 71 68 67 65 62 59 56 55 54 53 52 50 45 36 27 20 15 12 11 11 11 10 8 7 5 5 5 5 6 7 7 10 12 13 15 17 20 23 21 21 32 33 20 16 18 15 15 15 14 13 12 18 24 24 29 40 52 68 75 68 62 62 69 77 81 83
33 42 53 55 48 48 56 61 66 69 75 76 63 47 45 52 56 52 54 60 63 67 69 68 66 64 64 66 64 61 60 60 60 61 59 57 55 53 51 50 49 47 45 44 43 39 34 28 22 17 13 12 12 12 11 9 7 6 5 5 5 6 7 8 10 12 13 15 19 19 20 26 29 24 19 16 14 15 14 14 13 10 18 25 24 28 33 40 60 78 76 70 67 68 75 79 80
31 45 44 40 45 45 45 53 63 74 83 72 53 44 40 42 49 46 37 35 42 50 57 62 63 62 63 63 60 54 48 47 46 46 45 43 41 42 43 44 44 43 41 39 38 38 37 36 32 28 24 19 15 12 12 13 11 9 9 8 7 7 7 6 7 9 11 12 13 15 17 19 21 22 19 15 14 14 13 13 13 9 11 19 23 28 30 33 55 80 83 75 71 70 73 75 76
29 37 26 28 51 58 57 61 55 59 66 50 39 41 35 37 44 39 28 24 26 29 36 45 50 55 60 61 56 46 37 35 32 30 28 24 23 26 31 36 38 38 39 37 35 33 33 33 33 32 32 29 25 19 14 13 12 12 12 12 12 12 12 10 8 7 7 9 10 11 12 14 16 16 16 15 14 13 12 11 12 10 8 11 18 27 30 29 46 74 86 81 75 72 73 73 72
25 31 25 21 33 39 47 56 48 49 54 39 32 35 39 50 46 28 22 20 18 19 22 25 30 38 47 51 48 37 27 23 20 18 16 12 12 15 18 24 26 28 31 33 34 33 31 31 31 31 32 32 32 30 25 20 15 12 13 14 15 15 15 15 14 11 8 7 8 9 9 10 12 12 13 13 12 12 12 11 10 10 8 8 12 22 29 28 33 53 72 80 80 74 71 72 71
26 38 35 21 21 23 26 33 35 40 40 28 25 28 37 48 34 17 18 17 14 17 16 17 20 22 27 33 34 28 20 16 13 11 10 8 8 8 9 12 12 15 19 23 28 31 31 31 30 31 32 32 33 33 34 32 26 20 15 13 15 16 16 16 15 16 14 10 7 8 8 8 9 11 11 11 11 11 11 10 9 8 7 8 8 13 25 30 29 33 43 59 75 77 72 71 70
18 27 28 23 23 23 23 25 24 24 24 21 21 20 26 31 21 14 16 14 13 14 12 14 15 14 15 19 22 21 17 13 11 10 9 8 8 7 7 8 7 9 14 20 24 26 28 29 28 29 31 33 36 36 36 37 37 33 26 20 16 15 16 16 15 16 16 14 12 10 9 8 7 9 9 10 11 11 12 12 11 7 6 7 6 8 21 32 31 25 25 38 60 76 77 72 69
Wind_Speed
31 31 31 31 31 32 31 32 31 34 36 36 35 34 36 30 25 27 22 23 26 26 25 26 28 28 30 31 33 35 37 39 40 39 39 41 35 32 34 33 35 36 35 35 33 32 30 27 25 24 23 22 21 21 20 19 17 16 14 14 13 13 13 11 9 9 9 8 8 7 6 5 5 4 3 3 2 2 3 4 4 4 3 3 4 5 6 6 7 7 9 10 10 11 11 10 10
30 30 31 32 32 33 33 32 32 36 36 34 34 34 35 29 26 27 26 26 25 25 24 25 28 29 30 31 33 34 35 36 37 41 44 41 33 33 35 35 37 36 35 33 32 32 31 29 26 24 24 23 23 22 22 21 19 18 16 15 15 14 14 13 11 9 9 9 9 8 7 6 5 5 4 3 3 3 4 4 5 4 3 3 3 4 5 6 6 7 8 9 10 11 11 10 10
29 30 31 32 32 33 34 33 34 36 37 34 32 36 34 28 28 29 28 26 24 25 24 26 28 28 29 30 30 31 33 34 36 40 43 39 36 37 37 36 37 36 35 33 32 33 32 31 27 25 24 24 24 24 24 22 20 19 18 17 16 15 13 13 15 14 11 9 9 9 8 8 7 6 5 5 4 4 5 5 5 4 3 3 3 4 5 5 6 7 8 8 9 10 10 10 10
29 29 30 31 32 33 35 35 35 35 38 35 31 38 34 26 30 29 28 26 25 26 26 27 28 29 29 27 26 27 27 28 33 37 40 40 41 42 40 38 36 35 33 32 33 32 33 32 29 26 25 26 25 25 25 24 22 19 18 17 17 16 15 13 13 15 15 13 11 10 10 9 8 7 6 6 5 5 5 5 5 4 3 3 3 4 4 5 5 6 7 8 9 10 10 10 10
30 30 30 31 32 33 34 35 36 35 37 34 33 41 34 27 31 29 28 27 26 27 28 29 29 30 28 26 24 24 23 25 33 36 38 42 43 41 40 41 37 34 32 31 32 32 33 32 30 28 27 26 26 27 27 27 23 19 18 18 18 18 15 14 13 13 14 15 15 13 12 11 10 8 8 7 6 5 4 5 5 4 3 2 3 3 4 4 5 6 7 7 9 9 10 10 10
30 31 31 32 33 33 34 36 36 35 37 36 36 41 35 31 32 29 29 28 28 28 30 30 31 30 27 27 25 25 23 24 31 32 33 37 40 39 38 41 39 35 33 32 32 32 33 33 32 30 29 28 28 29 27 27 24 22 19 17 20 19 15 15 16 15 13 14 15 16 15 14 12 11 9 8 6 5 4 4 4 3 2 2 3 3 4 4 5 5 6 7 9 10 9 9 10
31 32 32 32 34 34 35 36 35 36 39 36 36 40 35 34 33 31 29 28 29 30 31 31 31 29 29 29 26 27 24 24 27 29 32 32 36 40 38 39 39 36 34 33 33 33 33 34 33 32 32 30 30 30 26 25 24 23 19 17 19 19 16 17 18 17 16 15 15 16 16 14 13 12 10 9 7 5 3 3 3 2 2 2 3 3 3 4 5 5 6 7 9 9 8 8 9
31 32 32 33 35 34 35 36 36 39 39 35 35 38 37 36 34 32 31 30 30 31 32 32 30 29 30 30 28 30 26 24 25 27 31 30 33 40 42 40 39 38 35 35 34 33 33 34 34 33 32 30 29 28 27 26 24 22 22 20 19 19 18 19 20 19 18 17 17 16 16 15 13 12 11 10 8 5 3 4 3 3 2 2 3 4 4 5 6 6 7 7 9 9 7 7 8
31 32 33 34 35 35 36 36 38 39 38 36 36 37 37 36 34 33 32 32 32 31 32 32 30 30 31 29 29 33 28 25 25 26 29 30 32 37 43 42 41 39 37 36 35 35 34 34 35 33 31 29 29 28 28 27 24 24 24 23 21 20 20 21 21 20 19 18 18 17 16 15 14 14 14 12 9 6 4 4 4 3 3 3 4 5 6 7 8 7 7 8 8 8 7 6 6
30 32 32 33 35 35 35 37 39 39 38 37 37 37 38 36 34 34 33 34 33 33 34 32 31 32 31 28 30 33 29 28 26 25 27 30 32 35 40 43 42 40 38 37 35 36 36 35 35 33 31 30 31 30 29 28 27 27 26 25 23 21 21 23 23 21 20 18 17 16 16 16 16 17 16 14 11 8 6 5 5 4 4 3 5 6 7 8 9 8 7 7 7 7 6 5 5
31 31 32 33 34 35 35 38 40 39 38 37 38 39 38 36 34 33 33 34 34 34 35 33 34 33 31 30 32 32 29 29 28 26 26 28 32 34 38 43 44 41 39 37 36 36 34 35 35 35 35 33 33 31 29 30 30 29 29 27 26 25 24 24 25 25 22 19 16 15 15 16 18 18 17 15 11 8 7 6 6 5 4 4 6 7 8 9 9 8 6 6 6 6 6 4 4
32 32 31 33 34 35 36 38 40 39 37 37 40 40 38 37 35 34 33 33 34 35 37 36 35 33 32 33 32 32 31 29 29 27 27 28 30 32 35 40 43 43 40 37 37 36 34 35 36 37 36 34 33 30 29 28 26 26 28 29 29 30 27 25 26 27 24 20 17 15 15 16 18 19 18 15 12 9 8 7 6 5 4 5 6 7 7 8 8 7 5 5 5 5 5 3 3
29 31 31 34 34 35 35 36 38 37 37 39 40 39 37 37 36 35 33 33 33 36 37 36 35 34 35 35 33 33 31 30 30 29 28 28 30 31 33 37 41 43 41 38 38 37 36 37 37 36 35 34 31 29 28 26 25 25 26 28 29 30 28 25 27 28 26 23 19 16 17 19 17 16 16 14 12 10 8 7 6 5 4 5 6 6 6 7 7 5 4 4 4 5 4 3 3
23 25 28 33 34 34 35 35 37 35 37 40 38 38 37 38 37 35 35 34 35 36 36 35 35 35 36 37 35 34 31 31 31 30 30 30 30 31 32 34 38 43 42 40 38 38 37 39 40 36 34 33 31 29 28 27 26 27 27 27 27 27 27 26 28 29 27 25 20 16 16 19 16 12 13 13 12 11 8 6 6 6 4 5 6 6 5 5 5 4 3 3 4 5 4 3 3
20 20 22 27 30 33 35 35 37 34 38 39 35 37 37 37 37 36 37 36 37 35 35 36 35 35 37 37 36 35 32 32 32 32 31 31 32 31 31 32 35 41 43 41 40 39 40 41 41 38 34 32 31 30 29 29 28 29 28 27 27 26 27 27 29 31 27 21 17 15 15 16 14 12 12 12 13 11 9 7 6 5 5 6 6 5 3 4 4 3 3 3 4 5 5 3 3
18 19 19 21 23 29 32 34 36 34 38 37 34 36 36 37 36 36 37 36 37 36 36 37 35 35 37 37 36 35 34 34 34 34 33 32 33 32 32 32 34 39 43 44 44 43 44 44 42 38 35 32 31 31 29 29 29 30 30 29 27 26 27 29 31 31 23 16 15 16 16 14 13 14 14 13 12 11 9 8 6 5 4 5 6 4 3 4 4 3 3 3 5 5 4 3 3
18 19 18 20 20 22 26 29 33 35 36 35 33 35 35 36 36 36 36 35 37 37 37 38 37 37 37 37 36 35 35 35 35 35 34 33 34 33 33 33 34 38 43 47 48 48 47 45 44 40 36 34 32 30 30 29 29 30 31 30 28 27 30 30 31 28 17 12 13 16 16 15 13 16 18 15 13 12 10 8 5 4 4 5 5 4 4 4 4 4 3 4 5 5 3 2 2
19 18 18 19 19 19 20 22 28 32 35 34 34 34 33 34 35 35 34 35 37 37 38 39 38 39 39 39 36 36 36 35 36 37 37 35 35 35 34 34 33 35 40 47 50 50 51 49 46 43 39 36 33 31 31 30 30 30 32 32 29 31 34 32 32 26 15 11 13 15 16 15 12 14 20 18 14 13 10 8 5 3 4 4 5 4 3 3 4 5 5 5 4 4 3 1 1
19 18 19 19 18 18 18 18 20 24 30 34 34 34 33 33 34 34 34 36 36 36 39 40 40 40 40 40 38 37 37 36 37 38 39 37 36 36 35 34 32 32 35 42 46 46 49 50 48 45 41 37 34 32 31 30 29 31 31 32 32 34 36 34 31 25 17 14 14 15 15 14 10 12 19 20 16 13 10 8 6 3 4 4 5 4 3 3 4 6 6 6 5 3 2 1 0
19 18 19 18 18 19 18 18 17 18 22 28 33 34 33 34 34 34 34 35 34 36 40 40 40 40 41 41 40 39 37 36 37 39 40 39 38 38 37 35 32 32 32 36 42 45 46 46 48 48 43 38 34 32 31 31 31 32 31 32 32 31 32 33 29 25 21 18 17 16 15 13 10 11 19 21 16 13 10 7 6 4 4 4 5 4 3 4 5 6 7 6 5 3 1 1 1
19 18 18 18 18 19 18 18 18 16 16 20 26 30 33 35 34 34 34 33 34 39 40 40 40 40 41 42 42 41 39 37 37 39 41 40 40 40 39 37 33 33 33 34 41 49 49 44 44 46 44 39 35 35 33 33 33 31 30 31 32 31 30 31 29 26 24 20 19 18 15 13 12 11 16 20 16 13 11 8 7 5 4 4 5 5 4 4 5 6 6 6 5 2 1 1 1
18 18 18 18 18 19 19 18 18 17 16 15 18 23 29 32 33 35 34 34 37 40 39 38 40 40 41 41 42 43 41 39 38 38 40 42 42 42 41 38 35 35 36 37 41 49 53 48 43 42 43 42 38 37 35 34 34 30 29 29 30 30 27 26 27 25 23 21 20 19 16 13 13 11 15 19 16 13 11 9 7 5 4 4 5 5 4 5 4 5 5 5 4 3 2 1 2
18 18 18 18 18 18 18 17 18 18 17 15 13 15 19 24 30 33 34 35 37 38 37 38 40 41 41 42 42 44 43 41 39 38 40 42 43 44 43 40 39 39 40 40 41 47 53 52 48 42 41 44 43 39 35 34 33 31 29 27 26 27 25 24 24 23 23 22 22 20 16 14 13 13 17 19 16 14 12 10 8 6 5 4 4 4 5 5 4 5 5 4 3 2 2 2 3
17 18 17 18 18 17 17 17 17 17 17 15 13 14 14 17 22 26 31 36 37 37 37 38 39 41 42 42 42 44 44 43 41 39 39 42 44 45 45 44 44 43 42 42 41 43 50 53 50 45 40 40 42 40 37 37 34 30 30 28 26 26 27 26 24 24 24 24 23 21 17 15 14 14 19 20 16 15 13 10 9 6 5 4 4 5 5 5 4 5 4 3 3 3 3 3 3
18 18 17 17 17 17 17 17 17 16 15 14 14 14 15 16 17 20 26 31 33 35 36 38 40 41 43 42 42 44 44 44 42 40 39 41 43 44 45 46 47 48 46 45 42 39 42 48 48 46 42 37 39 40 40 38 34 30 28 28 28 26 26 26 25 25 25 24 24 23 20 17 15 14 17 21 17 16 15 12 10 8 6 5 4 5 5 5 5 4 3 3 3 3 3 2 2
18 18 17 17 16 16 16 17 16 16 14 13 14 15 16 15 17 21 23 24 27 31 35 39 41 42 43 43 42 43 44 44 43 41 40 40 41 42 43 46 48 50 48 45 44 39 38 43 49 50 45 38 37 40 40 37 32 30 28 27 28 28 26 25 25 25 25 25 24 24 23 20 17 15 16 21 20 18 17 14 10 9 7 6 5 5 5 5 4 4 3 2 1 2 2 2 2
19 18 17 17 17 16 16 16 16 16 15 13 15 16 16 16 19 22 20 19 24 27 32 37 40 42 44 44 43 43 44 45 44 42 41 40 39 40 41 44 48 49 46 43 42 42 40 42 48 52 47 40 38 37 38 37 34 30 29 28 28 27 26 25 25 25 26 25 25 24 24 21 19 17 17 20 22 20 19 16 12 10 8 7 7 6 5 4 4 4 3 2 1 1 1 1 2
18 18 17 17 17 16 15 16 16 17 16 14 16 17 18 19 20 18 17 18 22 25 30 34 38 41 44 45 44 43 44 44 45 43 42 40 38 38 39 42 46 46 44 43 40 41 43 43 47 52 49 43 43 40 38 37 37 34 30 28 28 27 24 24 24 25 25 25 25 25 24 22 20 19 18 19 23 24 21 17 13 11 9 8 8 7 6 5 5 5 5 3 1 2 2 2 3
16 17 18 17 17 15 13 14 16 17 16 14 16 16 19 23 19 16 17 18 19 21 26 31 36 39 42 45 45 44 43 43 44 43 42 41 38 37 38 41 44 43 41 41 39 40 43 43 45 54 50 45 46 45 41 37 36 36 34 30 28 27 24 23 23 23 24 25 25 25 25 24 22 21 21 20 22 24 23 19 15 12 10 9 9 8 7 6 6 6 6 5 3 3 3 3 4
14 16 17 16 18 17 12 12 15 16 15 14 15 13 18 23 19 17 18 16 17 18 21 25 31 35 39 43 44 45 44 42 43 43 42 41 38 37 38 41 43 41 40 40 39 40 42 41 42 53 50 44 45 46 45 40 36 35 36 34 29 27 26 24 23 22 23 24 25 26 25 26 24 22 22 21 21 23 23 20 17 14 12 10 10 9 8 6 7 7 6 6 6 5 4 5 5
13 14 14 13 16 18 15 13 14 15 13 13 14 12 19 24 21 20 19 17 17 17 18 21 25 29 34 40 43 44 44 43 41 41 42 40 38 37 39 43 43 40 40 40 40 40 41 39 41 50 48 43 44 44 44 41 36 34 35 36 33 30 28 26 25 23 23 23 24 25 25 26 25 24 22 21 22 23 22 21 20 16 13 12 11 11 9 7 7 8 7 7 8 7 6 6 6
14 13 13 12 13 18 19 15 14 15 13 13 12 13 21 23 20 21 18 18 18 17 18 20 22 24 28 34 40 42 44 43 41 40 41 40 38 37 39 43 42 41 41 41 42 42 40 36 38 47 48 43 44 44 42 41 37 33 32 34 34 33 30 27 26 26 24 23 22 23 24 25 26 26 23 21 22 23 21 21 23 19 15 14 13 12 11 9 9 9 8 8 8 8 7 7 7
16 14 13 13 13 15 18 17 16 16 15 15 12 14 20 19 18 20 18 18 19 17 18 19 21 22 23 27 34 39 42 43 42 39 39 40 38 37 39 42 42 41 41 42 44 43 40 36 37 44 48 44 44 45 45 42 38 34 31 31 31 31 31 29 27 26 25 23 22 21 21 23 25 27 25 21 20 22 21 22 24 22 18 16 15 14 13 11 11 11 10 9 9 8 8 8 8
16 15 14 15 16 14 15 18 19 19 19 18 16 16 18 18 18 20 18 17 18 18 17 18 21 21 20 21 26 33 39 42 42 40 39 39 39 38 39 41 41 41 41 42 43 41 39 37 37 43 48 46 43 44 46 43 38 36 31 29 28 26 26 27 26 26 25 23 22 21 20 20 22 25 25 24 21 22 23 24 25 24 20 18 17 16 15 13 13 13 12 11 10 9 8 9 9
17 17 17 17 19 16 14 17 19 22 22 20 17 15 13 16 18 19 19 18 17 17 17 17 19 21 20 19 20 26 33 39 41 41 40 38 38 38 39 40 40 39 40 41 41 40 39 40 39 43 49 50 45 44 45 43 38 36 32 27 27 24 22 23 24 24 24 23 23 21 20 19 19 21 23 24 23 22 22 23 24 25 23 21 19 18 17 15 15 14 13 11 10 10 9 10 11
17 18 18 18 19 18 15 16 18 21 22 19 16 14 12 13 15 18 19 19 17 17 16 16 17 19 20 18 18 19 26 34 39 40 41 39 38 38 38 40 41 40 39 39 39 38 41 44 42 43 51 53 49 46 44 39 35 33 31 26 24 23 21 23 23 24 23 22 22 21 21 20 19 20 20 22 23 22 21 21 21 23 26 25 22 20 19 18 17 16 14 12 11 11 11 10 11
16 16 18 18 18 18 16 15 16 18 19 19 15 13 12 11 12 15 18 19 19 17 15 15 15 16 18 18 18 17 19 27 34 38 40 40 39 39 39 39 40 40 40 39 39 38 42 50 48 45 52 54 49 46 40 35 32 28 26 25 24 24 24 25 25 25 23 21 21 21 22 21 21 21 21 20 21 21 21 21 20 21 26 29 25 23 22 20 19 16 14 13 12 12 12 12 12
17 16 17 17 16 18 17 15 15 17 18 18 15 12 11 11 11 13 16 18 19 18 16 14 14 15 16 17 18 17 17 21 28 33 37 39 39 40 40 39 39 39 40 40 40 38 39 47 52 52 56 57 52 48 43 36 30 26 25 26 27 27 28 28 27 26 25 22 21 20 21 22 22 22 23 22 20 20 20 21 21 21 26 33 29 25 24 21 19 16 14 14 13 13 13 12 12
19 17 16 16 16 18 17 14 15 17 18 16 14 12 11 12 12 12 14 16 18 18 17 15 14 14 14 15 16 18 18 18 22 28 33 36 38 40 41 41 40 40 40 41 41 41 37 39 49 57 62 63 57 53 52 46 34 28 29 30 31 31 31 30 29 27 25 23 21 21 21 22 24 24 24 24 22 20 20 21 21 21 27 35 31 27 24 22 20 17 15 15 15 15 15 13 13
18 18 17 16 16 17 16 15 15 17 18 16 14 11 11 12 12 12 12 14 16 17 17 15 15 14 15 15 15 16 18 18 20 24 28 33 37 40 42 42 42 41 42 42 43 44 42 39 41 47 54 60 60 57 54 48 39 35 34 35 35 35 34 32 30 27 24 22 21 22 23 24 25 26 26 25 24 22 21 21 21 20 27 35 32 28 25 23 21 18 17 17 17 17 16 14 13
18 19 18 17 16 17 18 17 16 17 16 16 14 10 11 12 12 12 12 13 15 16 17 16 15 15 15 16 16 16 17 18 20 21 24 29 34 38 42 43 43 43 42 43 44 44 44 43 40 39 41 45 50 53 48 42 39 38 37 37 38 37 37 34 30 26 24 23 24 24 26 27 27 27 27 26 25 24 23 22 21 19 25 33 31 29 27 25 23 21 19 19 19 19 18 16 15
19 21 20 18 17 17 18 17 17 16 14 14 13 10 11 12 12 12 12 11 13 15 17 17 16 16 16 17 18 18 18 18 19 21 22 24 29 35 40 43 44 44 44 44 45 45 44 44 43 42 43 40 39 42 42 40 40 39 37 37 37 37 36 34 31 29 29 28 28 28 28 29 29 28 28 28 27 26 25 23 22 21 23 28 31 30 28 27 25 23 21 21 21 21 20 19 17
19 22 21 19 18 18 18 17 16 14 14 15 13 10 10 11 12 13 11 10 10 12 15 16 17 17 17 18 19 19 20 19 19 20 22 23 25 30 36 41 43 45 45 45 46 46 45 45 45 44 46 43 40 39 38 39 41 41 39 37 35 35 36 37 37 37 37 34 32 32 31 30 30 30 30 29 29 28 27 26 24 24 24 25 30 32 29 28 27 25 24 23 23 23 21 20 19
20 20 20 19 19 19 18 17 14 13 15 15 11 9 8 9 11 12 11 10 10 10 13 14 16 17 17 18 18 19 20 21 21 20 21 23 24 27 31 37 41 43 45 46 46 47 47 47 47 47 47 46 44 44 43 43 44 44 43 40 38 38 40 42 43 43 41 39 37 35 35 33 32 33 32 31 31 30 29 28 27 26 26 25 29 34 33 31 31 28 26 26 25 24 23 22 21
19 18 19 19 19 19 17 16 13 13 14 12 10 10 9 8 11 11 9 8 8 10 11 12 14 15 16 17 17 18 18 19 20 21 21 22 24 26 28 33 37 41 43 45 47 48 48 48 48 49 49 48 47 48 48 49 51 52 53 51 47 44 45 45 46 47 45 41 40 38 37 36 34 34 34 34 33 32 31 30 29 28 28 27 28 35 37 34 34 31 29 28 27 25 25 25 24
16 16 17 18 18 17 16 14 12 12 12 10 11 11 8 7 10 11 9 8 8 8 9 9 11 13 15 16 18 18 18 18 18 19 21 22 23 25 27 30 34 38 41 44 46 47 48 49 49 50 51 51 50 50 50 52 54 58 58 55 49 47 49 48 47 49 48 44 43 41 40 38 36 35 36 36 36 35 34 32 32 30 30 29 29 35 43 39 36 34 32 31 29 28 28 28 27
13 14 15 16 16 15 15 13 12 11 10 10 12 12 9 7 9 10 10 10 11 10 8 8 9 10 12 14 16 18 19 19 19 19 20 21 22 24 26 29 32 36 39 42 45 47 48 49 50 51 51 52 52 53 53 53 55 57 58 55 51 49 52 52 50 51 50 47 45 44 42 40 38 37 37 38 38 37 36 35 34 32 31 31 30 36 47 44 38 38 35 34 32 31 31 30 29
11 12 14 14 14 13 12 11 10 8 8 11 13 13 10 8 8 11 12 13 14 12 10 9 9 10 11 13 14 16 17 18 19 19 19 20 21 23 25 28 31 34 37 40 42 45 47 49 51 52 53 53 53 54 54 55 56 58 59 57 54 52 54 55 54 53 52 50 48 47 45 43 42 40 38 39 39 39 38 37 36 34 32 31 30 35 48 46 40 40 38 37 36 33 33 32 31
10 12 13 11 11 10 9 8 9 7 9 12 14 13 10 8 10 13 14 14 15 13 12 12 12 13 14 15 15 16 16 16 17 18 18 18 19 22 24 27 30 33 36 39 41 44 46 48 50 52 54 55 55 55 56 56 57 59 60 60 57 55 56 57 56 56 54 53 52 50 49 47 45 43 41 40 40 40 40 39 38 36 33 32 29 32 44 46 41 41 40 39 38 36 35 33 33
9 11 11 10 10 10 10 9 9 9 10 13 14 13 10 9 12 14 15 15 16 16 15 15 15 15 15 16 17 18 17 17 17 18 18 18 18 20 22 25 28 32 35 37 40 42 44 46 48 50 52 54 56 57 58 58 59 59 61 61 60 58 58 59 59 58 57 56 56 54 52 50 48 46 44 42 41 42 42 42 41 39 36 35 32 32 39 44 44 43 41 41 40 39 37 35 34
10 11 12 12 12 12 13 12 11 10 11 14 16 15 12 11 12 14 15 16 18 19 19 19 18 17 16 17 18 19 19 20 20 20 21 20 20 20 21 23 26 29 33 36 38 40 42 45 47 49 50 52 54 56 57 59 60 61 61 62 62 60 59 60 61 62 60 59 58 56 55 53 52 50 47 45 44 44 45 45 44 44 42 39 37 36 37 41 45 45 44 44 43 41 38 36 35
11 12 13 14 13 12 14 15 16 16 15 16 16 16 15 14 15 16 16 16 18 19 20 21 21 21 19 18 18 19 20 21 21 22 23 23 23 22 22 23 24 26 29 32 35 38 40 43 45 47 49 51 53 54 55 57 59 61 62 63 63 63 62 61 62 63 63 62 60 59 58 56 54 53 51 48 46 46 47 48 48 47 45 41 40 39 39 39 43 47 47 45 45 43 40 38 37
12 12 14 14 14 13 13 15 17 17 16 16 16 16 15 16 16 17 18 18 18 19 20 21 22 23 23 22 21 21 22 22 22 22 23 24 25 25 25 25 25 26 28 29 32 34 37 39 43 46 49 51 52 54 55 56 58 59 61 62 63 63 63 63 63 64 65 65 63 62 61 60 57 55 53 51 49 48 49 51 51 49 45 42 41 41 41 40 41 45 48 47 46 45 43 41 40
13 14 15 16 16 15 15 15 14 13 14 15 16 15 16 18 19 19 20 21 20 20 20 21 23 24 24 24 24 24 25 26 24 24 24 25 25 25 26 27 27 28 29 30 32 33 36 38 40 43 47 50 53 54 56 57 58 58 59 61 61 62 62 63 64 65 67 67 66 65 63 62 61 58 56 54 52 51 51 52 53 50 46 45 43 43 43 42 41 43 47 48 46 46 45 43 41
12 15 17 16 15 15 14 15 15 14 15 16 15 15 17 20 20 21 22 23 22 22 21 21 23 24 25 25 24 25 27 28 27 26 26 26 27 26 26 27 28 29 31 32 34 35 36 38 40 42 45 48 52 55 57 58 59 59 60 61 61 61 61 62 63 65 67 69 68 67 65 64 64 62 60 58 56 54 54 53 54 52 49 47 46 46 45 44 43 43 45 48 48 47 46 45 43
12 13 16 16 16 16 16 16 17 16 16 17 16 15 17 20 21 24 25 25 25 24 23 23 24 25 26 26 25 25 27 28 27 28 28 28 28 28 27 27 28 28 30 32 34 36 38 39 42 44 46 48 51 54 58 60 61 61 61 62 63 63 62 62 62 64 66 68 68 67 67 66 65 65 63 61 59 57 55 54 54 53 51 49 48 48 46 46 46 45 44 47 50 49 48 46 45
12 11 12 14 15 16 17 18 18 16 17 19 19 17 19 22 24 27 28 28 29 28 27 26 25 25 26 26 27 27 27 28 28 28 29 28 28 29 29 29 29 29 30 31 33 36 38 40 42 45 47 50 52 55 58 61 63 64 64 64 64 64 64 63 62 63 65 67 67 66 66 66 66 66 65 64 63 60 57 56 55 54 53 52 50 49 48 47 47 47 46 47 50 52 50 47 46
12 11 10 11 12 12 15 17 17 16 17 20 21 20 22 25 27 30 32 31 31 32 31 29 28 27 27 27 28 28 28 28 28 28 29 28 28 29 30 31 31 32 32 33 34 35 38 40 43 45 47 50 53 56 58 61 64 66 67 67 66 66 66 65 64 63 63 65 66 64 64 65 65 66 66 66 65 62 59 57 55 54 53 53 51 49 50 50 48 47 48 48 50 53 53 50 47
Wind_Direction
270 269 267 266 265 264 261 261 261 259 258 259 260 260 261 262 260 260 256 247 245 247 247 247 246 242 240 238 236 233 231 230 228 228 230 231 230 231 234 234 236 236 236 238 236 234 234 234 235 237 238 238 238 238 236 234 233 231 233 239 245 249 251 248 247 247 242 236 232 225 218 216 221 229 235 246 263 287 303 316 324 326 335 350 351 347 346 349 350 350 348 348 354 360 357 348 342
271 269 268 267 265 263 262 260 259 259 259 259 261 261 261 262 258 257 254 249 246 246 246 247 248 246 244 242 240 238 234 232 228 226 227 229 227 227 231 232 234 235 235 237 237 235 233 232 232 234 235 235 235 236 236 233 232 233 232 236 243 248 251 250 243 240 240 235 230 222 215 212 217 222 227 235 251 272 285 301 310 315 320 336 342 337 337 340 341 342 341 343 352 357 354 348 344
271 270 269 267 265 263 262 260 257 260 262 260 261 262 260 260 256 252 252 251 247 245 244 245 248 248 247 246 244 243 240 236 233 229 227 226 226 226 228 230 231 233 233 233 235 235 233 231 229 230 231 230 232 234 235 232 230 232 234 235 238 241 243 248 245 239 234 232 230 222 214 210 214 215 220 230 245 263 278 294 304 308 308 326 335 330 330 334 334 337 337 340 349 354 352 349 348
271 270 268 267 265 263 262 261 259 258 261 262 260 261 259 255 254 251 249 249 246 243 242 242 245 246 246 247 247 248 246 242 239 234 228 223 225 225 224 227 229 230 230 231 233 234 233 231 229 227 227 226 228 230 232 228 223 225 232 234 233 234 234 240 245 244 238 231 229 223 217 213 214 213 217 228 242 257 273 292 303 304 301 321 326 320 323 329 332 336 338 342 348 351 351 350 349
270 268 267 265 263 262 262 261 259 257 259 260 257 259 259 253 252 251 247 245 244 242 240 239 240 243 246 247 247 247 244 237 236 235 229 225 225 226 225 226 228 228 227 229 231 233 233 232 230 228 226 224 224 225 227 226 222 220 226 231 232 228 227 234 238 242 240 234 231 228 225 222 220 220 223 230 239 252 271 289 299 297 292 309 312 309 319 329 333 339 343 346 349 348 349 350 349
269 267 265 263 262 262 261 259 259 258 257 256 254 258 258 253 251 250 248 244 242 240 239 238 238 241 244 245 244 243 238 232 235 238 234 230 227 224 226 226 227 228 226 228 230 232 232 232 230 228 224 221 221 220 225 233 231 226 224 232 240 234 224 231 236 237 238 233 230 227 225 223 223 225 228 232 238 251 270 283 286 280 275 292 296 297 316 330 332 338 341 343 346 345 345 347 348
268 266 265 263 262 261 259 259 259 257 256 254 254 258 257 253 251 249 247 245 241 239 239 239 238 239 240 242 242 240 236 232 234 237 235 233 227 222 225 227 227 228 226 227 229 229 229 230 229 228 225 219 221 222 223 231 235 232 226 233 245 242 230 233 239 238 235 232 229 224 221 221 219 219 224 230 235 245 258 262 258 251 259 284 284 288 311 324 325 326 330 336 342 342 340 343 347
268 266 264 263 262 261 260 259 258 256 257 255 253 256 255 252 250 248 246 244 241 239 239 238 237 236 238 239 241 240 235 231 230 232 233 230 225 223 225 227 227 228 227 227 227 227 224 227 227 224 224 222 226 229 225 224 227 228 224 228 238 241 237 237 240 238 234 232 232 226 222 221 220 220 222 226 227 228 232 235 233 233 249 273 276 285 302 309 312 313 321 333 340 340 334 338 345
270 267 264 263 262 261 260 260 258 257 257 255 252 253 253 252 250 247 245 243 241 240 240 238 237 235 237 236 239 241 235 232 229 229 231 229 226 223 224 225 227 228 227 226 226 226 222 226 228 222 221 224 229 231 230 228 226 226 226 226 230 236 237 237 236 233 231 229 231 232 232 233 232 230 224 223 220 216 215 219 226 232 246 268 277 285 295 298 300 304 318 332 338 337 328 331 343
272 269 267 264 263 261 260 259 258 257 256 255 253 252 251 251 249 247 245 244 241 241 241 239 238 236 237 234 235 241 237 233 230 229 230 229 227 223 222 223 225 226 226 225 224 224 222 226 230 226 224 225 230 229 230 231 229 227 228 227 228 230 228 231 228 218 217 221 226 233 239 242 239 231 223 218 212 207 207 212 224 235 249 276 286 290 294 297 297 300 317 329 334 332 321 323 343
274 271 268 265 263 261 258 257 257 256 256 255 254 251 250 250 249 247 245 244 242 242 241 239 239 237 237 234 233 239 238 235 232 229 229 229 230 225 222 222 224 225 226 224 222 223 222 226 227 227 227 226 230 231 230 231 230 228 227 226 229 228 215 213 216 209 206 208 216 224 233 238 236 230 220 209 197 192 201 210 222 232 251 280 291 295 297 299 299 300 310 320 327 325 314 318 351
273 270 268 265 262 259 257 257 258 257 256 255 254 252 251 250 248 246 244 244 243 242 241 239 240 239 239 237 234 236 236 235 233 230 229 229 231 229 224 222 223 224 225 224 223 223 222 225 225 223 224 225 227 230 234 237 237 233 229 227 230 233 224 210 211 215 215 210 208 216 224 228 229 226 214 197 183 184 198 211 224 231 252 280 288 295 299 298 298 299 303 308 318 319 311 321 4
274 271 267 263 262 261 260 259 259 258 257 254 253 253 252 250 248 246 245 244 242 242 242 240 240 240 240 239 235 234 234 235 234 231 230 229 230 230 227 222 222 223 224 224 225 226 223 226 227 223 221 223 225 226 231 236 237 236 233 231 232 239 241 227 217 220 225 223 218 221 227 226 224 217 205 190 179 185 198 211 226 236 258 281 285 289 295 293 292 293 293 301 309 312 310 327 13
281 276 270 265 264 261 259 258 257 257 256 253 252 253 252 251 249 247 245 243 242 242 243 242 240 240 240 240 237 234 232 233 234 232 230 230 230 230 229 223 221 222 223 224 225 225 225 228 228 221 218 221 225 227 229 231 234 236 235 234 236 239 241 234 224 222 225 225 222 226 228 225 222 208 196 190 183 184 196 209 226 240 262 281 283 282 284 279 278 281 280 295 303 306 308 325 9
288 284 278 272 267 262 258 256 256 255 255 254 253 252 252 251 250 248 245 244 244 243 243 242 239 239 240 239 238 235 230 230 233 232 230 231 231 231 230 224 220 221 222 224 224 222 224 229 228 220 216 218 223 226 228 230 235 239 238 236 236 236 237 235 228 224 221 216 215 218 220 219 219 206 194 197 192 185 193 206 224 242 267 279 279 276 262 253 255 260 261 282 295 302 307 323 357
289 286 284 280 275 266 261 257 255 254 255 255 254 252 252 251 250 249 247 245 246 244 242 242 240 239 240 239 239 236 231 228 230 232 230 230 231 231 230 226 220 219 221 223 223 223 226 229 229 223 217 215 219 223 226 229 234 240 243 240 235 235 238 234 228 223 213 206 208 210 214 216 219 212 201 203 200 191 192 202 221 245 272 278 276 268 240 232 238 242 248 267 284 295 306 328 350
291 287 285 284 283 275 270 263 256 254 255 256 254 252 251 250 250 248 248 246 245 245 243 242 241 240 240 239 238 236 232 228 227 230 230 229 230 230 229 228 222 218 219 222 223 222 224 226 227 225 218 215 217 220 225 228 232 237 241 240 236 235 236 234 230 222 202 194 208 211 214 214 220 217 205 203 203 197 192 199 216 247 273 279 271 257 237 231 235 238 243 258 273 291 310 343 358
294 289 284 283 284 281 280 272 261 255 253 254 252 250 249 249 248 246 246 246 244 244 245 242 241 240 239 239 237 235 233 228 225 227 229 227 228 230 229 228 226 221 220 223 222 218 219 221 223 222 216 214 215 218 224 228 231 232 235 235 232 230 231 231 227 214 189 188 211 215 214 212 219 220 206 201 201 197 191 197 209 240 267 275 262 248 234 228 234 239 240 250 267 289 311 351 15
296 291 283 280 281 282 284 281 274 263 255 252 251 249 248 247 246 244 243 244 243 243 244 242 241 240 239 239 237 235 233 229 225 225 227 227 226 229 229 229 229 227 227 227 226 221 217 216 218 218 213 210 212 216 221 225 227 229 232 231 227 227 228 225 216 199 181 187 207 213 214 214 221 221 207 199 197 196 191 196 205 225 254 262 251 236 226 227 240 244 243 249 262 280 297 312 40
298 292 284 280 280 281 282 283 283 277 263 255 251 250 248 246 245 243 242 242 242 241 241 240 240 240 240 240 238 236 233 229 225 223 225 226 225 227 228 228 229 231 232 229 228 228 222 214 212 211 207 205 207 212 217 220 223 224 227 229 225 221 219 213 202 189 182 187 202 209 212 221 230 223 206 195 188 194 193 196 207 215 240 247 238 227 228 246 256 252 246 244 247 260 277 264 230
301 296 289 284 280 279 280 281 282 280 275 263 255 251 248 246 245 243 241 240 241 239 238 238 239 239 240 240 238 237 234 230 226 224 224 225 225 226 226 226 227 230 233 230 227 228 228 221 211 206 201 200 204 210 214 218 222 220 220 225 219 210 208 204 195 187 185 190 202 208 210 222 238 228 207 193 179 186 193 196 208 211 229 239 234 230 235 261 270 253 238 230 220 213 220 230 220
301 298 294 288 283 281 279 280 280 278 276 269 262 255 250 248 245 243 241 239 239 240 237 237 239 239 239 240 240 238 235 231 227 224 223 223 224 225 225 224 226 229 231 232 229 227 229 227 218 208 201 199 202 208 211 215 220 219 218 223 217 207 204 197 189 186 185 192 204 210 211 221 234 222 206 196 178 180 192 197 205 208 222 235 235 236 247 267 268 232 216 211 198 180 187 210 206
300 296 293 289 285 282 280 280 278 277 274 271 268 263 257 252 248 245 243 240 240 242 239 237 238 238 239 239 240 240 237 233 229 225 224 224 224 224 224 224 226 228 228 230 230 229 227 224 221 216 207 201 199 202 207 212 215 215 215 219 218 211 206 198 190 187 189 197 205 211 212 220 225 206 199 195 181 182 191 196 204 206 216 232 239 240 258 267 246 208 195 189 170 146 172 198 207
303 297 292 288 283 280 279 280 279 279 279 276 271 268 264 257 253 248 245 243 242 242 241 239 238 238 238 238 239 241 239 236 230 226 225 225 224 224 224 224 226 228 229 230 231 230 226 222 221 219 214 205 199 198 203 207 206 207 210 213 216 212 206 202 197 193 195 202 209 212 211 216 216 202 199 195 185 186 190 195 202 205 213 223 235 241 263 265 228 201 188 174 142 135 173 193 202
309 301 294 288 283 281 279 279 281 283 284 280 273 269 264 261 258 252 246 245 243 243 242 241 239 238 238 237 237 240 240 239 233 228 226 226 226 224 223 225 228 230 231 232 231 233 229 223 222 221 215 206 200 199 199 199 198 199 204 207 212 212 204 199 199 199 199 202 209 213 211 213 214 210 204 198 193 191 191 196 201 204 212 216 224 236 263 262 227 208 202 187 145 145 166 182 196
317 307 300 292 286 284 281 281 283 286 287 281 273 266 263 261 255 252 250 247 245 242 241 241 240 239 239 236 236 238 240 241 237 231 227 227 228 226 224 225 229 231 232 232 231 236 235 226 225 224 215 203 201 204 199 194 194 197 201 203 207 211 208 204 202 202 201 203 208 214 215 213 213 216 212 203 201 199 193 195 200 204 208 213 215 225 257 261 233 222 228 218 165 164 152 147 210
322 314 303 295 294 291 289 289 290 289 288 283 274 266 264 259 252 254 257 254 250 245 241 240 240 240 240 237 235 235 239 242 240 235 229 228 228 228 226 226 230 233 235 236 235 240 241 236 231 222 212 201 199 205 202 195 193 198 201 203 206 209 210 209 206 205 205 207 210 215 219 218 215 218 221 211 205 206 199 192 198 205 207 212 210 214 241 252 234 230 234 233 191 218 177 147 212
326 321 309 300 297 296 299 300 300 296 293 288 277 272 270 264 257 260 261 255 253 251 247 242 239 239 240 239 236 233 236 240 241 238 233 229 227 228 226 228 233 235 236 238 239 241 243 246 235 218 209 200 194 200 205 201 196 197 201 203 207 208 210 211 210 209 207 209 212 215 219 221 221 222 230 225 213 210 203 192 195 204 206 212 210 208 227 235 225 226 226 229 219 221 224 198 211
328 325 320 316 307 306 313 311 308 303 300 294 284 285 281 273 269 264 258 255 255 255 254 249 243 240 239 239 237 234 233 237 241 240 237 233 228 226 226 229 235 237 238 237 239 241 244 250 232 212 209 201 194 195 199 204 201 197 198 202 207 208 210 213 212 212 211 212 212 214 218 220 223 227 234 236 224 214 206 194 193 202 205 212 213 207 219 225 216 221 219 224 240 238 231 219 210
327 327 326 324 317 318 330 325 316 312 311 300 291 292 279 274 277 271 260 256 255 255 257 255 250 245 240 239 237 235 233 234 238 239 238 236 230 225 224 229 234 237 239 237 238 239 242 248 227 207 208 206 201 200 197 201 202 196 195 197 205 209 211 215 214 214 214 214 214 214 217 219 223 229 235 239 234 222 212 201 195 199 203 209 214 208 215 220 212 219 214 217 236 241 237 226 211
325 328 325 322 318 315 322 331 320 316 318 302 290 279 266 269 275 273 266 261 258 255 256 256 255 252 246 241 237 236 234 232 235 238 237 237 232 225 223 228 234 234 236 237 237 238 239 244 228 210 208 209 208 206 201 198 196 194 193 195 201 206 210 214 214 214 214 215 217 217 219 220 222 227 232 239 238 228 219 211 203 199 201 207 213 209 213 216 208 212 209 212 225 229 232 228 211
324 329 325 320 315 309 316 329 322 314 315 304 291 268 264 268 270 268 267 267 265 258 255 255 257 257 254 247 240 236 236 234 232 235 237 236 232 227 224 228 233 233 233 234 235 236 236 239 233 216 209 210 211 207 202 200 196 193 191 190 196 202 206 210 212 213 214 215 217 220 222 223 223 223 227 235 239 232 223 218 211 202 199 206 213 208 211 212 204 206 204 207 217 220 226 227 214
319 323 322 313 307 311 317 322 320 315 314 311 295 264 264 269 266 266 266 266 267 264 259 257 258 260 261 255 246 238 236 236 233 232 235 235 231 227 226 229 233 233 232 233 234 233 232 236 238 225 213 212 211 206 203 202 201 198 191 187 191 196 201 206 211 213 214 216 217 220 221 224 225 224 225 229 236 237 232 224 216 208 199 203 214 209 208 209 202 207 208 205 212 215 222 225 219
311 312 313 308 306 316 318 316 318 317 317 316 299 271 265 268 266 265 264 262 264 266 264 260 259 260 263 263 256 245 237 237 236 232 232 234 231 227 227 230 233 234 233 234 235 232 230 232 237 232 219 212 210 207 203 200 199 198 192 189 192 193 196 204 211 214 215 217 218 221 221 223 226 226 228 228 231 238 237 232 223 216 203 201 212 210 207 208 202 208 213 210 210 214 222 226 223
308 306 307 306 307 314 316 314 317 319 319 318 307 290 275 266 264 263 262 261 260 264 266 264 260 258 260 263 262 253 241 238 238 235 232 232 231 228 227 229 231 233 233 235 237 234 230 228 234 236 221 212 211 206 202 200 199 199 195 193 196 194 195 203 209 214 218 220 222 225 226 226 228 228 231 232 235 238 236 233 230 225 213 203 208 210 207 207 204 208 214 213 212 214 222 227 224
306 303 301 300 303 307 310 311 318 322 319 317 313 304 288 268 263 263 263 263 261 260 262 265 264 259 258 259 261 259 248 241 240 238 235 232 231 229 228 229 230 231 231 235 237 237 234 227 230 232 217 209 208 203 199 201 199 200 201 200 200 201 204 207 211 214 219 223 226 230 231 232 233 232 234 236 240 241 232 229 234 235 224 209 205 209 209 207 207 209 213 215 214 215 221 228 226
302 298 295 294 297 300 303 309 320 324 317 315 316 304 293 283 269 263 263 265 265 263 261 262 265 263 259 257 257 257 251 245 243 242 239 234 231 230 230 229 231 231 230 232 233 237 237 229 227 225 211 204 204 202 201 203 202 201 202 203 206 207 208 210 212 214 218 222 226 231 235 236 237 237 238 238 242 243 236 234 242 245 230 213 204 207 210 207 208 212 215 218 217 214 218 225 225
298 294 291 289 290 293 298 307 319 324 318 316 317 304 297 297 284 270 264 263 265 266 266 263 263 264 261 258 256 255 251 246 244 244 243 238 232 231 231 230 229 230 230 231 232 235 235 226 220 216 208 205 208 209 210 212 210 205 204 206 208 208 209 211 212 214 218 221 225 230 236 239 240 240 240 239 240 242 242 241 249 255 232 213 204 206 210 206 205 211 216 218 216 210 212 218 221
295 291 289 286 285 290 298 305 314 324 321 316 318 308 299 302 298 287 273 264 262 263 265 265 264 263 261 258 254 252 252 248 243 242 243 242 237 233 233 233 231 229 228 229 232 234 233 224 216 212 210 212 216 218 220 222 215 204 204 206 206 208 211 213 214 216 220 225 230 232 235 238 240 242 241 241 239 239 242 243 251 255 226 209 203 203 208 206 202 207 212 213 212 205 204 209 214
291 288 286 282 280 286 293 295 303 320 320 312 318 314 302 307 304 296 288 274 265 261 260 261 261 261 259 257 255 251 250 249 246 242 241 242 240 236 234 235 234 231 228 227 230 233 234 233 226 218 215 217 221 223 222 220 211 202 203 204 205 208 211 214 216 219 224 231 237 238 238 238 238 241 242 242 239 236 238 242 251 248 214 204 203 199 203 207 203 204 207 206 205 201 198 199 205
283 282 280 278 278 280 285 290 300 317 316 310 319 317 309 315 307 299 300 288 275 267 262 260 257 256 254 253 254 253 249 246 246 246 242 239 239 239 237 236 236 235 232 229 229 232 234 237 237 231 225 224 224 220 213 207 204 204 205 205 207 210 213 216 217 223 232 237 240 240 241 239 237 238 241 242 240 236 236 239 248 243 211 204 206 201 199 205 205 205 204 203 201 198 194 192 198
278 277 276 278 282 282 286 294 305 315 309 308 320 318 314 323 313 303 305 296 285 276 270 266 262 258 254 251 251 252 251 247 244 244 244 241 238 238 239 239 238 237 236 233 232 234 234 236 239 238 237 236 229 219 210 205 204 207 210 211 212 214 217 220 223 232 241 243 241 238 239 241 240 240 241 242 242 238 237 236 241 242 223 211 210 206 202 204 207 206 204 203 202 198 194 190 193
270 271 274 280 285 288 290 296 303 308 301 304 314 312 313 319 311 308 309 296 286 279 272 269 268 265 261 256 252 251 252 251 248 244 242 242 238 236 238 240 241 240 239 236 234 235 235 235 237 238 240 241 235 227 220 212 207 209 213 215 220 226 230 234 238 243 247 248 245 239 237 241 244 243 241 242 243 240 238 236 236 239 237 225 215 210 207 205 208 208 204 205 203 198 194 192 194
264 266 273 280 286 289 292 297 300 299 299 304 309 309 309 302 296 303 307 292 280 277 271 269 271 272 272 269 264 258 255 252 252 249 244 241 238 235 235 237 240 242 242 240 238 237 237 236 236 237 239 241 239 235 229 221 216 216 217 224 236 242 243 244 247 249 250 250 248 243 238 239 242 244 242 242 242 242 239 238 237 237 240 237 223 214 209 208 209 208 205 206 205 199 194 193 196
265 267 273 279 285 288 291 297 297 294 300 305 303 308 313 300 293 298 301 289 278 276 273 271 272 276 277 277 274 269 263 257 253 252 250 244 240 237 233 233 235 238 241 242 241 240 239 238 237 237 238 239 239 239 237 233 230 230 233 241 248 249 246 245 247 248 249 249 248 246 243 241 240 240 242 242 242 242 241 239 238 238 240 242 235 220 212 209 209 208 206 207 206 201 196 195 197
269 270 275 282 287 289 293 295 293 296 302 296 291 304 316 304 295 297 297 289 280 276 274 272 271 273 275 276 277 275 271 266 259 254 252 249 245 241 237 234 232 233 236 239 241 241 241 240 239 238 238 238 238 238 239 239 239 240 243 247 247 245 246 247 246 246 247 246 246 245 244 244 240 237 239 241 242 242 242 241 239 240 240 243 245 228 213 208 207 207 207 207 206 203 200 198 199
273 276 280 286 289 290 293 292 293 299 298 289 291 304 315 304 289 289 287 283 281 277 270 268 267 269 272 272 275 276 274 272 268 262 256 253 250 246 242 238 235 233 232 234 237 239 240 240 240 239 239 239 239 238 238 238 240 243 246 247 246 243 244 247 246 246 246 245 244 243 243 243 241 236 236 239 242 242 242 242 239 240 240 243 251 234 213 207 206 206 207 207 206 206 204 202 203
276 282 284 287 290 294 297 297 299 297 283 286 299 311 317 305 285 282 284 284 283 282 276 274 276 278 280 279 277 276 275 273 271 267 262 256 253 250 248 245 241 237 234 233 234 236 238 239 239 239 239 239 239 238 238 237 238 240 243 244 244 242 242 245 246 246 247 247 245 243 241 241 240 237 235 237 241 241 242 242 240 240 240 241 251 234 211 205 206 206 207 208 208 208 208 208 208
272 280 285 286 285 286 292 296 297 290 280 289 305 317 316 297 282 282 285 286 283 281 281 281 283 284 284 285 285 282 278 275 272 270 266 261 256 252 251 250 248 245 240 237 236 235 236 237 238 237 238 239 239 239 238 238 237 238 241 241 240 239 240 242 243 244 246 246 245 246 243 240 239 237 236 237 239 241 242 243 240 239 238 238 244 230 212 208 207 207 208 208 209 211 211 212 213
267 268 275 275 269 267 269 276 283 283 284 293 305 311 305 292 287 283 282 283 280 277 276 277 277 277 274 275 279 280 281 280 278 275 271 267 261 256 253 251 251 251 249 245 241 239 238 238 238 238 238 238 239 239 239 238 238 238 240 241 240 237 236 238 241 242 243 243 245 245 243 241 240 238 237 236 237 239 241 242 240 238 235 232 234 230 221 216 212 208 209 210 211 212 213 215 216
268 259 264 267 263 260 259 262 265 270 281 292 299 302 299 296 291 287 285 281 279 277 276 275 275 274 271 268 266 268 271 273 275 275 274 270 266 261 258 255 252 252 253 252 249 245 242 240 240 240 240 239 239 239 239 239 239 238 239 241 241 240 236 235 238 240 241 241 242 242 242 242 241 239 237 236 235 237 239 240 239 236 231 227 226 228 227 225 219 212 210 210 212 214 214 217 219
263 258 263 266 264 260 260 261 261 265 274 283 289 296 302 301 296 296 295 288 283 281 279 278 277 277 277 273 268 266 267 269 270 272 273 273 270 267 263 260 257 254 252 253 254 252 249 246 243 242 242 241 241 240 240 239 240 239 239 239 240 241 239 236 236 238 240 240 240 240 241 242 241 239 238 236 234 236 238 239 239 237 233 227 224 224 227 228 225 219 214 210 212 214 215 217 220
265 257 253 258 263 264 267 270 269 270 273 276 281 291 299 300 298 298 297 293 289 285 283 282 280 279 279 280 281 279 278 276 274 273 274 274 273 270 267 263 260 258 255 253 253 254 254 251 248 246 244 243 243 242 241 240 240 240 240 239 239 239 239 238 236 236 238 240 240 239 239 241 240 239 238 236 234 235 237 238 239 238 236 231 227 225 226 229 229 225 220 214 212 213 215 218 221
268 258 251 254 262 265 267 270 272 272 272 274 278 285 292 295 296 296 295 293 290 287 287 287 284 281 278 280 283 284 284 283 281 279 277 275 273 271 270 268 264 263 262 260 257 255 255 254 253 250 247 245 244 243 243 242 241 240 239 240 240 239 238 238 236 235 236 238 239 238 238 239 240 239 238 237 235 235 236 237 238 237 235 232 229 226 226 228 230 228 225 221 216 214 215 218 221
276 265 259 256 258 262 265 268 272 271 273 276 277 281 289 291 290 293 293 291 289 288 288 288 286 283 279 278 279 281 283 284 284 283 281 279 277 275 273 271 268 265 263 263 262 260 257 255 254 253 251 248 245 244 244 243 242 241 240 240 240 239 239 238 237 236 235 236 237 238 237 238 240 240 238 238 237 235 235 235 236 236 234 232 229 228 226 225 228 229 227 225 222 219 216 217 221
300 281 271 265 261 261 263 267 273 276 279 282 281 284 290 287 285 288 289 289 289 287 286 286 284 282 279 276 274 274 276 278 279 279 277 277 277 276 274 272 271 269 265 263 262 261 259 256 254 253 253 251 248 246 244 244 243 242 241 240 240 240 240 238 237 237 236 235 236 236 235 236 238 239 238 238 237 235 234 234 234 234 234 232 229 228 226 225 226 228 228 227 226 225 221 218 220
318 303 287 280 272 269 269 268 272 278 283 284 284 288 290 284 284 287 286 287 289 288 289 288 286 284 281 277 274 272 273 274 275 275 274 274 275 276 276 274 274 274 272 269 266 262 260 258 255 253 252 252 251 249 246 244 244 243 241 240 239 240 240 239 238 237 237 236 235 235 235 234 235 237 236 236 236 234 233 232 231 232 233 232 229 228 227 225 225 227 230 230 229 228 225 221 220
330 324 313 298 284 279 277 274 275 279 283 285 286 289 289 285 286 286 285 288 291 291 291 290 288 287 285 281 278 275 275 276 278 278 277 276 277 279 279 277 277 278 277 276 273 269 265 261 259 256 254 252 251 250 249 246 244 244 243 241 239 238 239 240 239 237 237 237 236 235 235 233 233 235 235 234 234 233 231 230 229 229 231 232 230 227 226 226 225 226 230 232 231 229 227 224 221